Погода Завитая

Погода Завитая : погода сейчас, прогноз погоды и архив. Всё, что Вы хотите узнать о погоде Завитая!

Поиск расширенной информации на нашем сайте:

Другие новости

Новости СМИ2

Главная страница сайта

Новости сайта

03.07.2017

Напоминаем, что на нашем специализированном сайте Метеоцентр.Азия вы можете получить высокодетализированные автоматические прогнозы погоды по пунктам России, СНГ и мира в авиационном формате (включающие направление и скорость ветра, видимость, явления погоды, количество и форму облачности, нижнюю и верхнюю границу облачности).


Погода Завитая - сегодня

Время (UTC), дата Ветер
(°,м/с) 
Видим.   Явления Облачность Т
(°С)
Тd
(°С)
f(%) Тe
(°С)
Pmin
(гПа)
dP
(гПа)
Po
(мм)
O2
(г/м3)
Тmin Tmax R s Состояние
почвы
18 14.06.18 170 (Ю) 20000 м  {ливн. осадки}  10/10 600 м кучево-дожд. 
[Cb calv]
+13.4 +10.7 84 +17  1009.8  0.1  736  281           
21 14.06.18 150 (ЮВ) 20000 м  в посл. час ливневой дождь  10/10 600 м кучево-дожд. 
[Cb calv]
+12.1 +10.7 91 +14  1010.1  0.2  736  282           
00 15.06.18 150 (ЮВ) 4000 м  слаб. ливневой дождь  10/10 600 м кучево-дожд. 
[Cb calv]
+12.8 +10.9 88 +15  1010.9  0.7  737  282  +12.1      мокрая 
03 15.06.18 150 (ЮВ) 20000 м  {ливн. осадки}  10/10 600 м кучево-дожд. 
[Cb calv]
+14.3 +11.3 82 +17  1011.1  0.4  737  280           
09 15.06.18 150 (ЮВ) 5{11}  20000 м    10/10 600 м кучево-дожд. 
[Cb calv]
+14.5 +10.5 77 +16  1010.7  -0.4  737  280           
15 15.06.18 150 (ЮВ) 20000 м    10/10 600 м кучево-дожд. 
[Cb calv]
+12.6 +9.6 82 +13  1010.4  -0.7  737  282           
18 15.06.18 130 (ЮВ) 20000 м    10/10 600 м кучево-дожд. 
[Cb calv]
+11.3 +9.6 89 +12  1009.5  -1  736  283           
21 15.06.18 140 (ЮВ) 20000 м    10/10 600 м кучево-дожд. 
[Cb calv]
+12.1 +9.8 86 +13  1007.7  -1.7  735  282           
00 16.06.18 140 (ЮВ) 5-10  20000 м    10/10 600 м кучево-дожд. 
[Cb calv]
+13.6 +10.2 80 +15  1006  -1.5  733  280  +11.3        влажная 
12 16.06.18 150 (ЮВ) 4{12}  4000 м  дождь  10/10 600 м 
[Frnb|Ns]
+13.9 +12.6 92 +20  996.2  -1.8  726  276    +14.4  35     
18 16.06.18 280 (З) 20000 м  {дождь}  10/10 600 м 
[Frnb|Ns]
+13.4 +11.8 90 +17  996.4  1.6  726  277           
21 16.06.18 280 (З) 5{10}  20000 м    10/10 600 м 
[Frnb|Ns]
+12.9 +11.1 89 +15  998.5  1.9  728  278           
00 17.06.18 280 (З) 3{10}  20000 м    10/10 600 м кучево-дожд. 
[Cb calv]
+14.6 +10.4 76 +17  1000.4  2.1  729  277  +12.6      влажная 
03 17.06.18 270 (З) 4{10}  20000 м    10/10 600 м кучево-дожд. 
[Cb calv]
+17.8 +10.9 64 +21  1000  -0.1  729  274           
06 17.06.18 270 (З) 5{11}  20000 м    8/8 600 м кучево-дожд. 
[Cb calv]
+20.1 +10.8 55 +23  999.6  -0.2  729  272           
09 17.06.18 320 (СЗ) 4{11}  20000 м    9/8 600 м кучево-дожд., средняя 
[Cb calv|Ac trans]
+18.9 +11.2 61 +22  1000  0.3  729  273           
12 17.06.18 220 (ЮЗ) 20000 м  {ливн. осадки}  6/6 600 м кучево-дожд. 
[Cb calv]
+14.9 +12.5 86 +21  1000.8  0.5  730  276    +20.8     
15 17.06.18 тихо ()   20000 м    3/3 1000 м 
[Sc]
+12.7 +11.3 91 +16  1001.3  0.2  730  279           
18 17.06.18 150 (ЮВ) 20000 м  {ливн. осадки}  3/3 600 м кучево-дожд. 
[Cb calv]
+11.2 +9.9 92 +14  1001.1  -0.3  730  281           
21 17.06.18 тихо ()   20000 м    3/0 верхняя 
[Ci fib]
+11.9 +10.6 92 +14  1001.8  0.6  730  280           
00 18.06.18 240 (ЮЗ) 20000 м    8/0 средняя, верхняя 
[Ac trans|Ci fib]
+17.7 +13.6 77 +26  1001.4  0.3  730  274  +10.3      мокрая 
03 18.06.18 200 (Ю) 20000 м    10/8 600 м кучево-дожд., средняя 
[Cb calv|Ac trans]
+19.9 +14 69 +29  1000.5  -0.7  730  271           
06 18.06.18 210 (ЮЗ) 20000 м    10/10 600 м кучево-дожд. 
[Cb calv]
+18.1 +13.8 76 +26  999.7  -0.9  729  273           
09 18.06.18 110 (В) 4000 м  слаб. ливневой дождь  10/10 600 м кучево-дожд. 
[Cb calv]
+16.9 +13.8 82 +25  998.4  -1.4  728  273           
12 18.06.18 020 (С) 4000 м  ливневой дождь  10/10 600 м кучево-дожд. 
[Cb calv]
+14.8 +13.2 90 +22  997.7  -0.9  728  275    +20.6     
Время (UTC), дата Ветер
(°,м/с) 
Видим.   Явления Облачность Т
(°С)
Тd
(°С)
f(%) Тe
(°С)
Pmin
(гПа)
dP
(гПа)
Po
(мм)
O2
(г/м3)
Тmin Tmax R s Состояние
почвы

Для получения пояснительной информации подведите курсор к названию столбца.

ПОГОДА Завитая - архив

Всё, что Вы хотите узнать о погоде Завитая - удобно и подробно!

Выберите нужную дату (начиная с 1 января 2015* года) и нажмите кнопку "Найти".
Будут отображены архивные сводки погоды по пункту Завитая, начиная с указанной даты.


Отображать данные в формате CSV (для использования в таблицах Excel)


Внимание! Наш архив погоды предназначен исключительно для личного некоммерческого использования в познавательных целях. Если Вам необходимы официальные справки о состоянии погоды (для производственных, юридических, коммерческих и т.п. целей), обращайтесь в органы Росгидромета.

*Примечание: данная дата относится к архиву по метеостанциям СССР (Россия, СНГ, Балтия).
Архив по метеостанциям Зарубежной Европы и Азии (кроме Китая) хранится 10 дней, по другим регионам земного шара (Китай, Африка, Америка, Австралия, Океания) - 1 день.

Завитая - район местоположения метеостанции


Название, широта, долгота, высота метеостанции:
Завитая 50.1°ш. 129.5°д. 241 м над ур. моря [Российская Федерация]

Дополнительная информация

В oтличие oт бoльшинства пoгoдных сайтoв мы публикуем пoдрoбную метеoинфoрмацию в детальнoм прoфессиoнальнoм фoрмате.

Характеристики температуры и влажнoсти вoздуха измеряются на высoте 2 м в тени вдали oт зданий и деревьев.
Скoрoсть ветра измеряется на высoте 10 м (на урoвне рoста челoвека скoрoсть ветра ниже в 1.5-2 раза). Если метеoстанция нахoдится в гoрoде или в лесу, тo скoрoсть ветра занижена на 2-4 м/с пo сравнению с oткрытым местoм. Скoрoсть ветра над акватoриями крупных рек и oзёр, а также на вершинах хoлмoв на 2-5 м/с выше, чем в oбычных услoвиях.
Атмoсфернoе давление в разных тoчках местнoсти мoжет значительнo oтличаться oт давления на метеoстанции, в зависимoсти oт услoвий рельефа (при пoдъёме на 10 м давление пoнижается примернo на 1 мм рт.ст.).